Terug naar catalogus

CHUANG XIN 16A

CX-16A

ActiefWetenschapVLEO
NORAD 53586·PAYLOAD·🇨🇳 China

Gelanceerd Aug 23, 2022 vanaf Xichang Satellite Launch Center

Loading…

Volgende Passages (komende 24 uur)

TLE

VersSource: Space-Track

Epoch: Sep 14, 2026, 20:28 UTC

1 53586U 22102A   26257.85318917  .00001576  00000-0  94483-4 0  9999
2 53586  28.9949  99.0163 0004707 238.4719 121.5420 15.06176544223056

Volg CHUANG XIN 16A in realtime met AllMySat

Download on the App Store